Location: Northern Prairie Star Party
(53.2167°N, 112.5333°W)
Time: 10:08:40
(UTC-06:00)

Amateur Radio Satellites - All Passes

Search period start: 24 October 2014 09:38
Search period end: 25 October 2014 09:38
Location: Northern Prairie Star Party, 53.2167°N, 112.5333°W

Satellite Date Start Highest point End Downlink Frequencies (MHz)
Time Altitude Azimuth
AO-7 24 Oct 09:56:37 10:01:18 17° 335° (NNW) 10:06:00 29.400 - 29.500 MHz
Saudisat 1A 24 Oct 09:57:22 10:01:45 71° 318° (NW) 10:06:12 436.775 MHz
UKube-1 24 Oct 10:25:02 10:28:25 22° 92° (E) 10:31:47 145.840 MHz, 145.915 MHz
MaSat-1 24 Oct 10:47:36 10:48:14 11° 254° (WSW) 10:48:51 437.345 MHz
Sapphire 24 Oct 10:54:01 10:58:20 23° 19° (NNE) 11:02:40 437.095 MHz 1200 baud AX-25 AFSK
FUNcube-1 24 Oct 11:03:32 11:06:55 22° 91° (E) 11:10:14 145.950 - 145.970 MHz USB
JAS-2 24 Oct 11:06:32 11:08:00 11° 331° (NNW) 11:09:28 435.800 - 435.900 CW/SSB, 435.910 FM
Oscar 11 24 Oct 11:06:35 11:10:47 48° 99° (E) 11:14:57 145.825 FM, Beacon 2401.500 USB
PCSat 24 Oct 11:16:45 11:21:24 27° 26° (NNE) 11:26:01 145.825 MHz
HO-68 24 Oct 11:19:57 11:27:11 80° 292° (WNW) 11:34:23 435.675 MHz FM
Saudisat 1A 24 Oct 11:38:22 11:42:02 25° 340° (NNW) 11:45:43 436.775 MHz
AO-7 24 Oct 11:48:13 11:50:50 12° 3° (N) 11:53:26 29.400 - 29.500 MHz
ZACube-1 24 Oct 11:54:23 11:58:42 64° 102° (ESE) 12:02:53 437.345 MHz
Oscar 16 24 Oct 11:58:01 12:00:38 14° 48° (NE) 12:03:16 437.025 USB, Beacon 2401.1428
UKube-1 24 Oct 12:00:39 12:04:57 56° 291° (WNW) 12:09:13 145.840 MHz, 145.915 MHz
Uribyol 2 24 Oct 12:18:17 12:19:39 11° 43° (NE) 12:21:02 436.500 FM
JAS-1B 24 Oct 12:18:26 12:22:22 20° 49° (NE) 12:26:20 435.800 - 435.900 CW/SSB
ITAMSAT 1 24 Oct 12:23:52 12:25:31 12° 44° (NE) 12:27:10 435.822 SSB
KITSAT 1 24 Oct 12:36:00 12:42:56 33° 110° (ESE) 12:49:53 435.175 FM
Sapphire 24 Oct 12:37:31 12:42:54 56° 43° (NE) 12:48:15 437.095 MHz 1200 baud AX-25 AFSK
FUNcube-1 24 Oct 12:39:25 12:43:37 50° 291° (WNW) 12:47:42 145.950 - 145.970 MHz USB
Oscar 11 24 Oct 12:43:13 12:46:46 25° 299° (WNW) 12:50:18 145.825 FM, Beacon 2401.500 USB
Oscar 19 24 Oct 12:49:12 12:53:35 29° 59° (ENE) 12:57:59 437.125 CW, 437.150 USB
PCSat 24 Oct 13:00:10 13:05:38 78° 49° (NE) 13:11:04 145.825 MHz
AO-27 24 Oct 13:06:30 13:10:23 22° 54° (NE) 13:14:17 436.795 MHz FM
HO-68 24 Oct 13:08:25 13:13:59 25° 314° (NW) 13:19:33 435.675 MHz FM
Saudisat 1A 24 Oct 13:19:45 13:22:57 19° 4° (N) 13:26:10 436.775 MHz
ZACube-1 24 Oct 13:31:34 13:34:42 20° 302° (WNW) 13:37:48 437.345 MHz
AO-Echo 24 Oct 13:33:06 13:37:34 35° 62° (ENE) 13:42:12 ?
Oscar 16 24 Oct 13:33:59 13:39:04 61° 69° (ENE) 13:44:10 437.025 USB, Beacon 2401.1428
AO-7 24 Oct 13:35:09 13:40:30 19° 30° (NNE) 13:45:51 29.400 - 29.500 MHz
UKube-1 24 Oct 13:39:09 13:40:15 11° 311° (NW) 13:41:20 145.840 MHz, 145.915 MHz
SO-50 24 Oct 13:48:08 13:52:04 29° 119° (ESE) 13:56:06 436.795 FM
Uribyol 2 24 Oct 13:52:59 13:57:56 44° 64° (ENE) 14:02:54 436.500 FM
ITAMSAT 1 24 Oct 13:58:52 14:03:51 47° 65° (ENE) 14:08:51 435.822 SSB
JAS-1B 24 Oct 14:06:31 14:12:21 87° 72° (ENE) 14:18:06 435.800 - 435.900 CW/SSB
Gurwin Techsat 1B 24 Oct 14:16:33 14:21:25 38° 62° (ENE) 14:26:19 435.225 FM
ISS 24 Oct 14:20:45 14:23:20 21° 148° (SSE) 14:25:56 145.800 FM
Sapphire 24 Oct 14:21:14 14:26:10 36° 245° (WSW) 14:31:05 437.095 MHz 1200 baud AX-25 AFSK
Oscar 19 24 Oct 14:27:39 14:32:42 55° 259° (W) 14:37:47 437.125 CW, 437.150 USB
TMSAT-1 24 Oct 14:28:07 14:32:55 37° 62° (ENE) 14:37:46 436.925 FM
KITSAT 1 24 Oct 14:29:33 14:37:40 82° 313° (NW) 14:45:49 435.175 FM
AO-27 24 Oct 14:44:07 14:49:21 83° 254° (WSW) 14:54:38 436.795 MHz FM
PCSat 24 Oct 14:44:16 14:48:33 24° 250° (WSW) 14:52:48 145.825 MHz
Saudisat 1A 24 Oct 14:59:43 15:03:44 32° 28° (NNE) 15:07:44 436.775 MHz
AO-Echo 24 Oct 15:11:34 15:16:16 43° 263° (W) 15:21:10 ?
UOSAT-12 24 Oct 15:14:16 15:17:54 23° 116° (ESE) 15:21:35 437.025 FM, 437.400 FM
Oscar 16 24 Oct 15:14:37 15:18:50 25° 268° (W) 15:23:03 437.025 USB, Beacon 2401.1428
Uosat F 24 Oct 15:18:47 15:22:27 21° 54° (NE) 15:26:08 435.120 FM
AO-7 24 Oct 15:23:40 15:31:29 49° 55° (NE) 15:39:19 29.400 - 29.500 MHz
SO-50 24 Oct 15:27:51 15:32:22 60° 321° (NW) 15:37:04 436.795 FM
Uribyol 2 24 Oct 15:32:45 15:37:32 35° 264° (W) 15:42:21 436.500 FM
ITAMSAT 1 24 Oct 15:38:48 15:43:31 34° 265° (W) 15:48:16 435.822 SSB
ISS 24 Oct 15:56:19 15:59:36 55° 167° (SSE) 16:02:53 145.800 FM
Gurwin Techsat 1B 24 Oct 15:56:20 16:01:23 43° 262° (W) 16:06:27 435.225 FM
JAS-1B 24 Oct 16:00:16 16:03:59 17° 274° (W) 16:07:40 435.800 - 435.900 CW/SSB
TMSAT-1 24 Oct 16:07:43 16:12:47 45° 262° (W) 16:17:54 436.925 FM
JAS-2 24 Oct 16:08:57 16:13:50 24° 47° (NE) 16:19:08 435.800 - 435.900 CW/SSB, 435.910 FM
AO-27 24 Oct 16:26:41 16:29:42 15° 274° (W) 16:32:44 436.795 MHz FM
KITSAT 1 24 Oct 16:26:42 16:34:12 39° 339° (NNW) 16:41:43 435.175 FM
Saudisat 1A 24 Oct 16:39:14 16:43:40 69° 229° (SW) 16:48:03 436.775 MHz
Hamsat 24 Oct 16:43:38 16:45:55 15° 55° (NE) 16:48:13 145.90 MHz
UOSAT-12 24 Oct 16:52:55 16:57:37 77° 317° (NW) 17:02:23 437.025 FM, 437.400 FM
Uosat F 24 Oct 16:55:39 17:00:41 83° 254° (WSW) 17:05:47 435.120 FM
SO-50 24 Oct 17:09:58 17:13:49 25° 344° (NNW) 17:17:44 436.795 FM
AO-7 24 Oct 17:16:09 17:24:14 56° 257° (WSW) 17:32:24 29.400 - 29.500 MHz
ISS 24 Oct 17:32:50 17:36:10 64° 187° (S) 17:39:29 145.800 FM
JAS-2 24 Oct 17:51:42 17:57:51 81° 71° (ENE) 18:04:55 435.800 - 435.900 CW/SSB, 435.910 FM
SO-67 24 Oct 18:08:29 18:09:43 12° 57° (ENE) 18:10:58 435.3500 MHz FM
Hamsat 24 Oct 18:17:04 18:21:17 88° 75° (ENE) 18:25:30 145.90 MHz
Saudisat 1A 24 Oct 18:20:32 18:22:27 13° 249° (WSW) 18:24:22 436.775 MHz
KITSAT 1 24 Oct 18:24:33 18:31:48 34° 8° (N) 18:39:02 435.175 FM
HO-68 24 Oct 18:24:53 18:28:26 15° 32° (NNE) 18:32:00 435.675 MHz FM
OPAL 24 Oct 18:30:22 18:35:01 38° 100° (E) 18:39:36 ?
UOSAT-12 24 Oct 18:34:24 18:38:27 27° 339° (NNW) 18:42:33 437.025 FM, 437.400 FM
Uosat F 24 Oct 18:37:31 18:40:18 15° 274° (W) 18:43:05 435.120 FM
SO-50 24 Oct 18:52:07 18:55:49 22° 8° (N) 18:59:33 436.795 FM
ISS 24 Oct 19:09:36 19:12:33 29° 207° (SSW) 19:15:31 145.800 FM
AO-7 24 Oct 19:15:17 19:19:04 14° 281° (W) 19:22:52 29.400 - 29.500 MHz
AO-40 24 Oct 19:28:42 23:20:54 25° 192° (SSW) 03:49:36 Beacon 2401.320
SO-67 24 Oct 19:38:43 19:42:10 85° 258° (WSW) 19:45:38 435.3500 MHz FM
JAS-2 24 Oct 19:38:58 19:43:53 24° 275° (W) 19:49:18 435.800 - 435.900 CW/SSB, 435.910 FM
Hamsat 24 Oct 19:55:58 19:57:52 13° 274° (W) 19:59:46 145.90 MHz
HO-68 24 Oct 20:07:48 20:14:22 41° 56° (NE) 20:20:59 435.675 MHz FM
OPAL 24 Oct 20:09:19 20:13:57 40° 300° (WNW) 20:18:33 ?
STRAND 1 24 Oct 20:14:16 20:19:19 50° 100° (E) 20:24:19 ?
UOSAT-12 24 Oct 20:16:23 20:20:00 21° 3° (N) 20:23:37 437.025 FM, 437.400 FM
KITSAT 1 24 Oct 20:20:58 20:28:56 57° 36° (NE) 20:36:52 435.175 FM
SO-50 24 Oct 20:32:58 20:37:31 41° 32° (NNE) 20:42:07 436.795 FM
Oscar 11 24 Oct 20:33:53 20:36:12 14° 54° (NE) 20:38:31 145.825 FM, Beacon 2401.500 USB
ZACube-1 24 Oct 21:21:53 21:25:06 19° 57° (ENE) 21:28:16 437.345 MHz
UKube-1 24 Oct 21:26:05 21:30:10 41° 66° (ENE) 21:34:17 145.840 MHz, 145.915 MHz
OPAL 24 Oct 21:51:33 21:51:37 10° 321° (NW) 21:51:41 ?
RS-15 24 Oct 21:52:31 22:00:50 26° 102° (ESE) 22:09:06 29.354 - 29.394 USB, Beacon 29.352 USB
STRAND 1 24 Oct 21:53:48 21:58:20 32° 300° (WNW) 22:02:51 ?
HO-68 24 Oct 21:54:52 22:01:55 59° 258° (WSW) 22:09:02 435.675 MHz FM
UOSAT-12 24 Oct 21:57:04 22:01:25 34° 27° (NNE) 22:05:43 437.025 FM, 437.400 FM
FUNcube-1 24 Oct 22:05:18 22:09:34 40° 66° (ENE) 22:13:46 145.950 - 145.970 MHz USB
Oscar 11 24 Oct 22:07:24 22:11:44 82° 74° (ENE) 22:16:05 145.825 FM, Beacon 2401.500 USB
SO-50 24 Oct 22:13:34 22:18:17 55° 233° (SW) 22:23:02 436.795 FM
KITSAT 1 24 Oct 22:16:38 22:24:29 56° 240° (WSW) 22:32:17 435.175 FM
ZACube-1 24 Oct 22:56:27 23:01:02 76° 257° (WSW) 23:05:34 437.345 MHz
UKube-1 24 Oct 23:02:41 23:06:29 29° 265° (W) 23:10:19 145.840 MHz, 145.915 MHz
UOSAT-12 24 Oct 23:37:13 23:41:58 73° 229° (SW) 23:46:38 437.025 FM, 437.400 FM
FUNcube-1 24 Oct 23:41:58 23:46:02 31° 265° (W) 23:50:04 145.950 - 145.970 MHz USB
Oscar 11 24 Oct 23:46:07 23:48:31 15° 273° (W) 23:50:56 145.825 FM, Beacon 2401.500 USB
HO-68 24 Oct 23:48:00 23:51:15 13° 280° (W) 23:54:32 435.675 MHz FM
SO-50 24 Oct 23:57:00 23:57:52 10° 252° (WSW) 23:58:45 436.795 FM
Oscar 10/S400 24 Oct 23:59:58 00:48:55 26° 221° (SW) 04:04:54 145.825 - 145.975 CW/USB, Beacon 145.810 USB
RS-15 25 Oct 00:00:30 00:11:25 78° 128° (SE) 00:22:23 29.354 - 29.394 USB, Beacon 29.352 USB
KITSAT 1 25 Oct 00:14:17 00:18:08 14° 262° (W) 00:21:59 435.175 FM
MaSat-1 25 Oct 00:28:01 00:31:32 30° 115° (ESE) 00:34:44 437.345 MHz
ZACube-1 25 Oct 00:36:36 00:38:12 12° 276° (W) 00:39:48 437.345 MHz
UOSAT-12 25 Oct 01:18:50 01:21:20 14° 249° (WSW) 01:23:49 437.025 FM, 437.400 FM
Oscar 16 25 Oct 01:40:56 01:43:23 13° 84° (E) 01:45:50 437.025 USB, Beacon 2401.1428
JAS-1B 25 Oct 01:42:56 01:47:12 18° 87° (E) 01:51:51 435.800 - 435.900 CW/SSB
MaSat-1 25 Oct 02:03:30 02:07:07 37° 312° (NW) 02:10:23 437.345 MHz
RS-15 25 Oct 02:13:56 02:24:36 54° 337° (NNW) 02:35:28 29.354 - 29.394 USB, Beacon 29.352 USB
Oscar 19 25 Oct 02:32:54 02:37:33 33° 95° (E) 02:42:09 437.125 CW, 437.150 USB
AO-27 25 Oct 02:51:23 02:55:31 23° 90° (E) 02:59:37 436.795 MHz FM
AO-Echo 25 Oct 03:11:55 03:16:57 41° 97° (E) 03:21:58 ?
Oscar 16 25 Oct 03:18:30 03:23:40 76° 105° (ESE) 03:28:47 437.025 USB, Beacon 2401.1428
Sapphire 25 Oct 03:29:41 03:31:22 11° 102° (ESE) 03:33:04 437.095 MHz 1200 baud AX-25 AFSK
JAS-1B 25 Oct 03:32:21 03:38:44 77° 105° (ESE) 03:46:21 435.800 - 435.900 CW/SSB
Uribyol 2 25 Oct 03:38:28 03:43:36 53° 100° (E) 03:48:40 436.500 FM
ITAMSAT 1 25 Oct 03:44:32 03:49:42 56° 101° (E) 03:54:50 435.822 SSB
PCSat 25 Oct 03:49:55 03:53:31 18° 107° (ESE) 03:57:07 145.825 MHz
Gurwin Techsat 1B 25 Oct 04:05:44 04:10:55 49° 99° (E) 04:16:03 435.225 FM
Oscar 19 25 Oct 04:12:10 04:17:03 45° 295° (WNW) 04:21:54 437.125 CW, 437.150 USB
OPAL 25 Oct 04:13:42 04:17:58 27° 55° (NE) 04:22:12 ?
TMSAT-1 25 Oct 04:16:49 04:21:57 47° 99° (E) 04:27:03 436.925 FM
RS-15 25 Oct 04:28:57 04:39:28 48° 10° (N) 04:50:17 29.354 - 29.394 USB, Beacon 29.352 USB
AO-27 25 Oct 04:30:18 04:35:32 68° 290° (WNW) 04:40:43 436.795 MHz FM
AO-Echo 25 Oct 04:50:48 04:55:42 39° 297° (WNW) 05:00:37 ?
JAS-2 25 Oct 04:56:02 04:59:01 12° 75° (ENE) 05:02:00 435.800 - 435.900 CW/SSB, 435.910 FM
Uosat F 25 Oct 04:57:48 05:01:28 20° 89° (E) 05:05:06 435.120 FM
Oscar 16 25 Oct 04:58:37 05:02:33 23° 305° (NW) 05:06:28 437.025 USB, Beacon 2401.1428
Sapphire 25 Oct 05:08:23 05:13:41 58° 122° (ESE) 05:19:02 437.095 MHz 1200 baud AX-25 AFSK
AO-7 25 Oct 05:10:17 05:17:52 37° 95° (E) 05:25:26 29.400 - 29.500 MHz
Uribyol 2 25 Oct 05:18:19 05:22:52 31° 301° (WNW) 05:27:23 436.500 FM
JAS-1B 25 Oct 05:23:48 05:29:03 29° 304° (NW) 05:34:58 435.800 - 435.900 CW/SSB
ITAMSAT 1 25 Oct 05:24:28 05:28:58 30° 301° (WNW) 05:33:26 435.822 SSB
PCSat 25 Oct 05:30:45 05:36:11 84° 128° (SE) 05:41:39 145.825 MHz
Gurwin Techsat 1B 25 Oct 05:46:00 05:50:45 34° 299° (WNW) 05:55:28 435.225 FM
OPAL 25 Oct 05:51:28 05:56:33 62° 255° (WSW) 06:01:36 ?
Oscar 19 25 Oct 05:54:01 05:55:14 11° 316° (NW) 05:56:27 437.125 CW, 437.150 USB
TMSAT-1 25 Oct 05:57:00 06:01:47 35° 299° (WNW) 06:06:33 436.925 FM
STRAND 1 25 Oct 05:58:36 06:02:49 26° 57° (ENE) 06:07:04 ?
Hamsat 25 Oct 05:58:49 05:59:46 11° 84° (E) 06:00:42 145.90 MHz
AO-27 25 Oct 06:11:08 06:14:11 16° 311° (NW) 06:17:13 436.795 MHz FM
Uosat F 25 Oct 06:35:45 06:40:50 75° 289° (WNW) 06:45:52 435.120 FM
JAS-2 25 Oct 06:38:23 06:45:51 50° 97° (E) 06:53:26 435.800 - 435.900 CW/SSB, 435.910 FM
RS-15 25 Oct 06:42:29 06:53:35 77° 41° (NE) 07:05:07 29.354 - 29.394 USB, Beacon 29.352 USB
Sapphire 25 Oct 06:52:17 06:57:23 40° 324° (NW) 07:02:31 437.095 MHz 1200 baud AX-25 AFSK
AO-7 25 Oct 07:03:00 07:11:15 69° 298° (WNW) 07:19:29 29.400 - 29.500 MHz
PCSat 25 Oct 07:15:23 07:20:13 31° 330° (NNW) 07:25:03 145.825 MHz
Hamsat 25 Oct 07:32:15 07:36:28 78° 103° (ESE) 07:40:41 145.90 MHz
OPAL 25 Oct 07:35:16 07:36:28 11° 275° (W) 07:37:39 ?
STRAND 1 25 Oct 07:36:34 07:41:40 64° 258° (WSW) 07:46:49 ?
Uosat F 25 Oct 08:15:45 08:18:52 17° 310° (NW) 08:21:58 435.120 FM
JAS-2 25 Oct 08:23:35 08:30:54 52° 297° (WNW) 08:38:25 435.800 - 435.900 CW/SSB, 435.910 FM
SO-67 25 Oct 08:28:47 08:32:10 47° 99° (E) 08:35:30 435.3500 MHz FM
Saudisat 1A 25 Oct 08:30:25 08:34:27 37° 123° (ESE) 08:38:32 436.775 MHz
MaSat-1 25 Oct 08:32:28 08:35:01 28° 45° (NE) 08:37:20 437.345 MHz
Sapphire 25 Oct 08:38:16 08:42:16 20° 349° (N) 08:46:17 437.095 MHz 1200 baud AX-25 AFSK
RS-15 25 Oct 08:55:11 09:05:22 44° 247° (WSW) 09:15:57 29.354 - 29.394 USB, Beacon 29.352 USB
AO-7 25 Oct 08:56:26 09:02:47 25° 321° (NW) 09:09:08 29.400 - 29.500 MHz
PCSat 25 Oct 09:01:27 09:05:18 19° 356° (N) 09:09:09 145.825 MHz
Hamsat 25 Oct 09:09:15 09:11:56 17° 303° (WNW) 09:14:36 145.90 MHz
HO-68 25 Oct 09:16:11 09:21:31 22° 87° (E) 09:26:49 435.675 MHz FM
STRAND 1 25 Oct 09:20:29 09:21:56 11° 278° (W) 09:23:23 ?
